STARLINK-11566, 62914

Orbit data source: Space-Track

STARLINK-11566, 62914 is a payload satellite owned by SpaceX/Seattle (US) in LEO that was launched on Sat, 08 Feb 2025 UTC via an FALCON 9 launch vehicle from the Air Force Eastern Test Range (AFETR). Payload-class satellites include a variety of spacecraft equipped with specific instruments for various scientific and technological missions. These include communications satellites like Starlink; space stations such as the ISS; scientific satellites like the Hubble; Earth observation satellites from companies like Planet Labs, Umbra, and HawkEye 360; GPS; miniature CubeSats for education and research; and military/defense satellites.

Loading next visibility...
Identifier
62914, 2025-027H
Orbit
LEO
Country
Flag of USUS
Related business
Manufacturer
SpaceX/Seattle
Mission
Operational Commercial Communications
Bus & Motor
STARLINK V2MD, Unknown motor
Mass
960 kg wet, ~910 kg dry
Launch date (UTC)
2025-02-08 (9 months ago)
Launch vehicle
FALCON 9
Launch site
Air Force Eastern Test Range (AFETR)
Object type
Payload
Rocket body
Debris
Shape & HBR
Box + 2 Pan, 18.1 m
Radar Cross Section
36.964 m², Large (>1 m²)

Expand to show TLE details & history
Last TLE update: 11 hours ago

TLE from 11 hours ago
0 STARLINK-11566
1 62914U 25027H   25312.59198394  .00301333  00000-0  22636-2 0  9993
2 62914  42.9981 357.8669 0005159  26.5755 333.5376 15.70874965 44146
Epoch: 2025-11-08T14:12Z
TLE epoch observation values (Epoch: 2025-11-08T14:12:27.412Z)
Latitude
-0.00004°
Longitude
96.73326°
Altitude
353.057 km
Speed
7.701 km/s
True Right ascension
23h 51m 28s
True Declination
0° 00' 00"
Sunlit
Object was in full shadow at epoch
Visualization orbit readout
Latitude
Unknown
Longitude
Unknown
Altitude
Unknown
Speed
Unknown
Apparent Right ascension
Unknown
Apparent Declination
Unknown
Sunlit
N/A
Visualization observer readout
Local Sidereal Time
21:28:44
Azimuth
Unknown
Elevation
Unknown
Doppler factor
Unknown
Orbital elements
Apogee altitude
361.852 km
Perigee altitude
354.902 km
Semi-major axis
6,736.514 km
Eccentricity
0.00052
Inclination
42.9981°
RAAN
357.8669°
Arg. of periapsis
26.5755°
True anomaly
333.51124°
Mean anomaly
333.5376°
Eccentric anomaly
333.52442°
Mean motion
3.92546 °/min
Orbital period
91.71 mins
BSTAR
0.0022636
Loading maneuver chart data...
Computing Atmospheric mass density...
Loading historical data...
Loading historical data...
Loading historical data...
Loading historical data...
Loading historical data...
Loading historical data...
Loading historical data...

Documentation

Showing up to 5 results
|